This demonstration page uses our WeatherBlox Daily Observations layout. Learn more.

Left ArrowRight Arrow

Hourly Observations for July 23, 2015

Temp ( °F °C ) Dew Point ( °F °C ) Humidity (%) Winds ( mph kmh ) Pressure ( in mb ) Visibility ( mi km ) Precip ( " mm )
12:52 am 00:52 Mostly Clear 74 23.3 72 22.2 94 94 Calm 29.90 1013 10 16 0.00 0.00
1:52 am 01:52 Cloudy 75 23.9 73 22.8 94 94 SE 3 6 29.89 1012 10 16 0.00 0.00
2:15 am 02:15 Cloudy 75 23.9 73 22.8 94 94 SE 5 7 29.88 1012 9 14 0.00 0.00
2:24 am 02:24 Cloudy 75 24 73 23 94 94 SE 5 7 29.88 1012 9 14 0.00 0.00
2:33 am 02:33 Cloudy 76 24.4 74 23.3 94 94 SE 8 13 29.85 1011 7 11 0.00 0.00
2:52 am 02:52 Cloudy with Mist and Fog 76 24.4 74 23.3 94 94 SE 5 7 29.88 1012 5 8 0.00 0.00
3:38 am 03:38 Cloudy with Mist and Fog 75 24 73 23 94 94 SSE 6 9 29.88 1012 2 3 0.00 0.00
3:50 am 03:50 Mostly Cloudy with Fog 75 24 75 24 100 100 S 6 9 29.88 1012 1 1 0.00 0.00
3:52 am 03:52 Mostly Cloudy with Fog 76 24.4 74 23.3 94 94 S 6 9 29.88 1012 1 1 0.00 0.00
4:15 am 04:15 Cloudy with Mist and Fog 76 24.4 74 23.3 94 94 S 5 7 29.88 1012 2 3 0.00 0.00
4:22 am 04:22 Cloudy with Mist and Fog 75 24 73 23 94 94 S 6 9 29.88 1012 4 6 0.00 0.00
4:52 am 04:52 Cloudy 75 23.9 74 23.3 96 96 S 7 11 29.88 1012 7 11 0.00 0.00
5:24 am 05:24 Cloudy 75 24 73 23 94 94 S 6 9 29.88 1012 9 14 0.00 0.00
5:41 am 05:41 Cloudy with Nearby Thunderstorms 75 23.9 73 22.8 94 94 S 7 11 29.88 1012 10 16 0.00 0.00
5:52 am 05:52 Cloudy with Nearby Thunderstorms 75 23.9 73 22.8 94 94 Calm 29.89 1012 10 16 0.00 0.00
6:07 am 06:07 Cloudy with Thunderstorms 75 23.9 73 22.8 94 94 S 6 9 29.88 1012 10 16 0.00 0.03
6:16 am 06:16 Cloudy with Strong Thunderstorms 75 24 73 23 94 94 Calm 29.88 1012 1 2 0.00 0.00
6:24 am 06:24 Cloudy with Nearby Thunderstorms 75 24 73 23 94 94 SSE 5 7 29.88 1012 2 3 0.00 0.00
6:30 am 06:30 Cloudy with Thunderstorms 75 24 72 22 89 89 SE 7 11 29.88 1012 3 5 0.00 0.00
6:33 am 06:33 Cloudy with Strong Thunderstorms 75 23.9 72 22.2 90 90 E 6 9 29.88 1012 3 4 0.22 5.59
6:42 am 06:42 Cloudy with Thunderstorms 75 24 72 22 89 89 Calm 29.88 1012 6 10 0.00 0.00
6:48 am 06:48 Cloudy with Strong Thunderstorms 75 24 73 23 94 94 WNW 7 11 29.91 1013 2 3 0.00 0.00
6:52 am 06:52 Cloudy with Strong Thunderstorms 75 23.9 73 22.8 94 94 NW 7 11 29.91 1013 1 2 0.33 8.38
6:59 am 06:59 Cloudy with Strong Thunderstorms 75 23.9 73 22.8 94 94 NW 5 7 29.88 1012 1 2 0.09 2.29
7:10 am 07:10 Cloudy with Thunderstorms 75 24 73 23 94 94 Calm 29.91 1013 2 3 0.00 0.00
7:18 am 07:18 Mostly Cloudy with Thunderstorms 75 24 73 23 94 94 Calm 29.91 1013 10 16 0.00 0.00
7:25 am 07:25 Partly Cloudy with Nearby Thunderstorms 75 23.9 73 22.8 94 94 Calm 29.91 1013 10 16 0.17 4.32
7:52 am 07:52 Mostly Cloudy with Nearby Thunderstorms 76 24.4 72 22.2 88 88 Calm 29.93 1014 10 16 0.17 4.32
8:13 am 08:13 Cloudy 76 24.4 71 21.7 85 85 Calm 29.94 1014 10 16 0.00 0.00
8:52 am 08:52 Sunny 77 25 72 22.2 85 85 SE 3 6 29.94 1014 10 16 0.00 0.00
9:14 am 09:14 Sunny with Thunderstorms 79 26 72 22 79 79 Calm 29.91 1013 10 16 0.00 0.00
9:37 am 09:37 Mostly Cloudy with Strong Thunderstorms 76 24.4 72 22.2 88 88 SW 9 15 29.94 1014 2 3 0.01 0.25
9:42 am 09:42 Cloudy with Strong Thunderstorms 73 23 70 21 89 89 W 8 13 29.94 1014 1 1 0.00 0.00
9:52 am 09:52 Cloudy with Thunderstorms 74 23.3 70 21.1 88 88 S 6 9 29.96 1014 2 3 0.30 7.62
9:54 am 09:54 Cloudy with Thunderstorms 73 23 70 21 89 89 S 7 11 29.94 1014 3 5 0.00 0.00
10:01 am 10:01 Cloudy with Nearby Thunderstorms 75 23.9 71 21.7 88 88 SSW 7 11 29.94 1014 10 16 0.00 0.03
10:20 am 10:20 Cloudy 75 24 72 22 89 89 S 6 9 29.91 1013 10 16 0.00 0.00
10:42 am 10:42 Partly Cloudy 79 26 72 22 79 79 SSE 3 6 29.94 1014 10 16 0.00 0.00
10:52 am 10:52 Mostly Sunny 80 26.7 73 22.8 79 79 Calm 29.94 1014 10 16 0.00 0.03
11:52 am 11:52 Mostly Cloudy 83 28.3 75 23.9 77 77 W 6 9 29.94 1014 10 16 0.00 0.00
12:52 pm 12:52 Partly Cloudy 84 28.9 74 23.3 72 72 SW 7 11 29.93 1014 10 16 0.00 0.00
1:52 pm 13:52 Mostly Cloudy 87 30.6 73 22.8 63 63 Calm 29.92 1013 10 16 0.00 0.00
2:52 pm 14:52 Mostly Sunny 88 31.1 74 23.3 63 63 WSW 6 9 29.90 1013 10 16 0.00 0.00
3:52 pm 15:52 Mostly Cloudy 89 31.7 73 22.8 59 59 W 7 11 29.89 1012 10 16 0.00 0.00
4:52 pm 16:52 Mostly Cloudy 88 31.1 74 23.3 63 63 W 6 9 29.88 1012 10 16 0.00 0.00
5:52 pm 17:52 Sunny 88 31.1 72 22.2 59 59 SW 3 6 29.88 1012 10 16 0.00 0.00
6:52 pm 18:52 Mostly Cloudy 87 30.6 73 22.8 63 63 W 5 7 29.88 1012 10 16 0.00 0.00
7:52 pm 19:52 Sunny 85 29.4 75 23.9 72 72 NNE 6 9 29.89 1012 10 16 0.00 0.00
8:52 pm 20:52 Clear 83 28.3 74 23.3 74 74 E 6 9 29.90 1013 10 16 0.00 0.00
9:52 pm 21:52 Partly Cloudy 81 27.2 74 23.3 79 79 ESE 3 6 29.93 1013 10 16 0.00 0.00
10:52 pm 22:52 Mostly Cloudy 80 26.7 75 23.9 85 85 S 5 7 29.94 1014 10 16 0.00 0.00
11:52 pm 23:52 Clear 78 25.6 74 23.3 87 87 S 6 9 29.93 1014 10 16 0.00 0.00

Powered by AerisWeather